DW7628 Weather Reports


Display with metric or nautical units.
time (UTC)temp
F
wind
direction
speed
MPH
gust
MPH
rain 1hr
in
rain 24hr
in
rain mn
in
humidity
%
barometer
mb
20260505024304 54 43 0.0 0.0 0.00 0.00 0.00 81 1015.1
20260505023304 54 43 0.0 0.0 0.00 0.00 0.00 80 1015.2
20260505022804 54 43 0.0 0.0 0.00 0.00 0.00 80 1015.2
20260505022304 55 42 0.0 0.0 0.00 0.00 0.00 80 1015.2
20260505021804 55 51 0.0 0.0 0.00 0.00 0.00 80 1015.3
20260505021304 55 203 0.0 0.0 0.00 0.00 0.00 81 1015.3
20260505020804 55 203 0.0 0.0 0.00 0.00 0.00 81 1015.3
20260505020304 55 202 0.0 0.0 0.00 0.00 0.00 81 1015.3
20260505015805 55 199 0.0 0.0 0.00 0.00 0.00 80 1015.4
20260505015304 55 219 0.0 0.0 0.00 0.00 0.00 80 1015.4
20260505014804 55 213 0.0 0.0 0.00 0.00 0.00 78 1015.2
20260505014304 55 265 0.0 0.0 0.00 0.00 0.00 77 1015.2
20260505013304 55 210 0.0 0.0 0.00 0.00 0.00 78 1015.6
20260505012804 55 232 0.0 0.0 0.00 0.00 0.00 77 1015.6
20260505012304 55 232 0.0 0.0 0.00 0.00 0.00 78 1015.7
20260505011803 55 223 0.0 0.0 0.00 0.00 0.00 78 1015.8
20260505011304 55 151 0.0 0.0 0.00 0.00 0.00 77 1015.8
20260505010803 55 151 0.0 0.0 0.00 0.00 0.00 77 1015.9
20260505005804 55 151 0.0 0.0 0.00 0.00 0.00 76 1015.8
20260505005304 55 151 0.0 0.0 0.00 0.00 0.00 76 1015.9
20260505004804 55 150 0.0 0.0 0.00 0.00 0.00 76 1016.0
20260505004304 55 150 0.0 0.0 0.00 0.00 0.00 76 1016.1
20260505003804 55 226 0.0 0.0 0.00 0.00 0.00 78 1016.2
20260505003306 55 226 0.0 0.0 0.00 0.00 0.00 77 1016.2
20260505002806 55 226 0.0 0.0 0.00 0.00 0.00 77 1016.3
20260505002307 55 226 0.0 0.0 0.00 0.00 0.00 77 1016.3
20260505001807 55 194 0.0 0.0 0.00 0.00 0.00 76 1016.4
20260505001306 55 231 0.0 0.0 0.00 0.00 0.00 75 1016.5
20260505000806 55 232 0.0 0.0 0.00 0.00 0.00 74 1016.5
20260505000306 55 233 0.0 0.0 0.00 0.00 0.00 73 1016.4
20260504235807 55 233 0.0 0.0 0.00 0.00 0.00 72 1016.5
20260504235306 55 233 0.0 0.0 0.00 0.00 0.00 70 1016.5
20260504234807 55 233 0.0 0.0 0.00 0.00 0.00 70 1016.6
20260504234306 55 233 0.0 0.0 0.00 0.00 0.00 69 1016.6
20260504233806 55 233 0.0 0.0 0.00 0.00 0.00 69 1016.6
20260504233306 55 212 0.0 0.0 0.00 0.00 0.00 70 1016.7
20260504232807 55 211 0.0 0.0 0.00 0.00 0.00 69 1016.8
20260504232306 55 210 0.0 0.0 0.00 0.00 0.00 68 1016.9
20260504231306 55 214 0.0 0.0 0.00 0.00 0.00 70 1017.0
20260504230806 55 214 0.0 0.0 0.00 0.00 0.00 71 1017.1
20260504230306 55 214 0.0 0.0 0.00 0.00 0.00 70 1017.2
20260504225806 55 214 0.0 0.0 0.00 0.00 0.00 72 1017.2
20260504225306 55 201 0.0 0.0 0.00 0.00 0.00 72 1017.2
20260504224806 55 232 0.0 0.0 0.00 0.00 0.00 70 1017.2
20260504224306 55 286 0.0 0.0 0.00 0.00 0.00 72 1017.3
20260504223806 55 70 0.0 0.0 0.00 0.00 0.00 71 1017.3
20260504223306 55 294 0.0 0.0 0.00 0.00 0.00 71 1017.3
20260504222806 55 339 0.0 0.0 0.00 0.00 0.00 72 1017.3
20260504222306 55 91 0.0 0.0 0.00 0.00 0.00 71 1017.3
20260504221806 55 110 0.0 0.0 0.00 0.00 0.00 72 1017.4
20260504221307 55 152 0.0 0.0 0.00 0.00 0.00 73 1017.4
20260504220827 55 201 0.0 0.0 0.00 0.00 0.00 75 1017.5
20260504215807 55 237 0.0 0.0 0.00 0.00 0.00 77 1017.5
20260504215306 55 204 0.0 0.0 0.00 0.00 0.00 78 1017.5
20260504214806 55 231 0.0 0.0 0.00 0.00 0.00 78 1017.6
20260504214305 55 227 0.0 0.0 0.00 0.00 0.00 77 1017.5
20260504213806 55 149 0.0 0.0 0.00 0.00 0.00 78 1017.5
20260504213305 55 248 0.0 0.0 0.00 0.00 0.00 81 1017.5
20260504212807 55 201 0.0 0.0 0.00 0.00 0.00 82 1017.6
20260504212306 55 158 0.0 0.0 0.00 0.00 0.00 82 1017.7
20260504211806 55 91 0.0 0.0 0.00 0.00 0.00 82 1017.7
20260504210307 55 201 0.0 0.0 0.00 0.00 0.00 82 1017.8
20260504205805 55 263 0.0 0.0 0.00 0.00 0.00 82 1017.8
20260504205306 55 145 0.0 0.0 0.00 0.00 0.00 82 1017.8
20260504204805 56 239 0.0 0.0 0.00 0.00 0.00 82 1017.8
20260504204306 56 151 0.0 0.0 0.00 0.00 0.00 82 1017.7
20260504203805 56 157 0.0 0.0 0.00 0.00 0.00 81 1017.7
20260504203306 56 148 0.0 0.0 0.00 0.00 0.00 81 1017.7
20260504202806 56 158 0.0 0.0 0.00 0.00 0.00 81 1017.7
20260504202306 56 59 0.0 0.0 0.00 0.00 0.00 81 1017.6
20260504201306 56 238 0.0 0.0 0.00 0.00 0.00 81 1017.7
20260504200806 56 171 0.0 0.0 0.00 0.00 0.00 80 1017.6
20260504195806 56 152 0.0 0.0 0.00 0.00 0.00 80 1017.5
20260504195306 56 195 0.0 0.0 0.00 0.00 0.00 80 1017.5
20260504194806 56 116 0.0 0.0 0.00 0.00 0.00 80 1017.5
20260504194306 56 229 0.0 0.0 0.00 0.00 0.00 80 1017.5
20260504193306 57 171 0.0 0.0 0.00 0.00 0.00 79 1017.4
20260504192806 57 164 0.0 0.0 0.00 0.00 0.00 79 1017.4
20260504192306 57 228 0.0 0.0 0.00 0.00 0.00 78 1017.5
20260504191806 57 247 0.0 0.0 0.00 0.00 0.00 78 1017.5
20260504191306 57 132 0.0 0.0 0.00 0.00 0.00 78 1017.4
20260504190805 57 211 0.0 0.0 0.00 0.00 0.00 78 1017.4
20260504190307 57 257 0.0 0.0 0.00 0.00 0.00 78 1017.4
20260504185805 57 213 0.0 0.0 0.00 0.00 0.00 77 1017.5
20260504185306 57 200 0.0 0.0 0.00 0.00 0.00 77 1017.4
20260504184305 57 244 0.0 0.0 0.00 0.00 0.00 77 1017.3
20260504183806 57 178 0.0 0.0 0.00 0.00 0.00 76 1017.2
20260504183306 57 167 0.0 0.0 0.00 0.00 0.00 76 1017.2
20260504182806 57 151 0.0 0.0 0.00 0.00 0.00 76 1017.2
20260504182305 57 203 0.0 0.0 0.00 0.00 0.00 76 1017.1
20260504181805 58 162 0.0 0.0 0.00 0.00 0.00 76 1017.1
20260504181306 58 166 0.0 0.0 0.00 0.00 0.00 76 1017.1
20260504180805 58 242 0.0 0.0 0.00 0.00 0.00 76 1017.1
20260504175306 59 181 0.0 0.0 0.00 0.00 0.00 74 1016.9
20260504174806 59 200 0.0 0.0 0.00 0.00 0.00 74 1016.8
20260504174306 59 140 0.0 0.0 0.00 0.00 0.00 73 1016.9
20260504173805 59 90 0.0 0.0 0.00 0.00 0.00 73 1016.8
20260504173306 60 172 0.0 0.0 0.00 0.00 0.00 72 1016.8
20260504172805 60 253 0.0 0.0 0.00 0.00 0.00 72 1016.7
20260504172305 60 140 0.0 0.0 0.00 0.00 0.00 72 1016.7
20260504171805 60 210 0.0 0.0 0.00 0.00 0.00 71 1016.6
20260504171305 61 195 0.0 0.0 0.00 0.00 0.00 70 1016.6
20260504170306 61 160 0.0 0.0 0.00 0.00 0.00 69 1016.6
20260504150806 66 84 0.0 0.0 0.00 0.00 0.00 61 1016.6
20260504150305 66 93 0.0 0.0 0.00 0.00 0.00 61 1016.5
20260504141306 66 253 0.0 0.0 0.00 0.00 0.00 61 1016.7
20260504140805 66 138 0.0 0.0 0.00 0.00 0.00 61 1016.8
20260504140305 66 128 0.0 0.0 0.00 0.00 0.00 61 1016.8
20260504130306 69 288 0.0 0.0 0.00 0.00 0.00 48 1017.4
20260504120305 69 241 0.0 0.0 0.00 0.00 0.00 47 1017.6
20260504110305 68 289 0.0 0.0 0.00 0.00 0.00 45 1018.2
20260504081804 62 260 0.0 0.0 0.00 0.00 0.00 54 1019.1
20260504080804 61 303 0.0 0.0 0.00 0.00 0.00 55 1019.0
20260504080304 62 292 0.0 0.0 0.00 0.00 0.00 55 1019.0
20260504070305 58 129 0.0 0.0 0.00 0.00 0.00 62 1018.7
20260504050304 50 239 0.0 0.0 0.00 0.00 0.00 79 1018.4
20260504045805 50 239 0.0 0.0 0.00 0.00 0.00 80 1018.3
20260504045305 50 239 0.0 0.0 0.00 0.00 0.00 80 1018.3
20260504044804 50 239 0.0 0.0 0.00 0.00 0.00 80 1018.3
20260504044305 50 239 0.0 0.0 0.00 0.00 0.00 80 1018.2
20260504043804 50 239 0.0 0.0 0.00 0.00 0.00 80 1018.1
20260504042305 50 239 0.0 0.0 0.00 0.00 0.00 82 1018.0
20260504041804 50 239 0.0 0.0 0.00 0.00 0.00 82 1018.0
20260504040804 50 239 0.0 0.0 0.00 0.00 0.00 82 1017.8
20260504035805 50 239 0.0 0.0 0.00 0.00 0.00 84 1017.7
20260504034304 50 239 0.0 0.0 0.00 0.00 0.00 85 1017.7
20260504032804 51 232 0.0 0.0 0.00 0.00 0.00 87 1017.6
20260504032304 51 232 0.0 0.0 0.00 0.00 0.00 87 1017.6
20260504031804 51 232 0.0 0.0 0.00 0.00 0.00 87 1017.6
20260504031304 51 236 0.0 0.0 0.00 0.00 0.00 86 1017.6
20260504030804 51 236 0.0 0.0 0.00 0.00 0.00 85 1017.6
20260504030304 51 236 0.0 0.0 0.00 0.00 0.00 85 1017.6
20260504025804 51 236 0.0 0.0 0.00 0.00 0.00 85 1017.6
20260504025304 51 236 0.0 0.0 0.00 0.00 0.00 85 1017.7
20260504024804 51 236 0.0 0.0 0.00 0.00 0.00 86 1017.7